When you browse on this site, cookies collect data to enhance your experience and personalize the content and advertising you see.
Visit our Privacy Policy to learn more. By continuing to use the site, you agree to this use of cookies and data.
  • In Latvia
  • List of Countries
  • For 7 days
  • Water Temperature
  • Weather Map
  • Weather Widgets
  • user-avatar
    Login

    Hourly Weather Sumgayit

    Today, 13 November, Wednesday

    Time Temperature Precipitation Wind Pressure Humidity
    00:00 +11°C° 0 mm 0 mps 747 mmHg 83%
    01:00 +11°C° 0 mm 0 mps 746 mmHg 83%
    02:00 +10°C° 0 mm 0 mps 746 mmHg 83%
    03:00 +10°C° 0 mm 0 mps 746 mmHg 82%
    04:00 +10°C° 0 mm 0 mps 746 mmHg 83%
    05:00 +10°C° 0 mm 0 mps 746 mmHg 84%
    06:00 +9°C° 0 mm 0 mps 746 mmHg 84%
    07:00 +11°C° 0 mm 1 mps 746 mmHg 79%
    08:00 +13°C° 0 mm 1 mps 747 mmHg 74%
    09:00 +14°C° 0 mm 1 mps 747 mmHg 70%
    10:00 +14°C° 0 mm 2 mps 747 mmHg 66%
    11:00 +15°C° 0 mm 2 mps 747 mmHg 62%
    12:00 +16°C° 0 mm 3 mps 746 mmHg 58%
    13:00 +16°C° 0 mm 3 mps 746 mmHg 59%
    14:00 +16°C° 0 mm 3 mps 746 mmHg 59%
    15:00 +16°C° 0 mm 3 mps 746 mmHg 60%
    16:00 +14°C° 0 mm 3 mps 746 mmHg 66%
    17:00 +13°C° 0 mm 3 mps 746 mmHg 72%
    18:00 +13°C° 0 mm 3 mps 746 mmHg 79%
    19:00 +12°C° 0 mm 3 mps 746 mmHg 81%
    20:00 +13°C° 0 mm 2 mps 746 mmHg 83%
    21:00 +13°C° 0 mm 2 mps 746 mmHg 85%
    22:00 +12°C° 0 mm 2 mps 746 mmHg 86%
    23:00 +12°C° 0 mm 2 mps 746 mmHg 87%

    Tomorrow, 14 November, Thursday

    Time Temperature Precipitation Wind Pressure Humidity
    00:00 +12°C° 0 mm 2 mps 746 mmHg 88%
    01:00 +12°C° 0 mm 2 mps 746 mmHg 89%
    02:00 +10°C° 0 mm 2 mps 746 mmHg 89%
    03:00 +10°C° 0 mm 2 mps 746 mmHg 89%
    04:00 +10°C° 0 mm 3 mps 746 mmHg 88%
    05:00 +10°C° 0 mm 3 mps 746 mmHg 87%
    06:00 +10°C° 0 mm 4 mps 746 mmHg 86%
    07:00 +11°C° 0 mm 4 mps 746 mmHg 81%
    08:00 +10°C° 0 mm 5 mps 747 mmHg 76%
    09:00 +12°C° 0 mm 5 mps 747 mmHg 71%
    10:00 +11°C° 0 mm 6 mps 747 mmHg 68%
    11:00 +13°C° 0 mm 6 mps 747 mmHg 66%
    12:00 +12°C° 0 mm 7 mps 747 mmHg 64%
    13:00 +11°C° 0 mm 7 mps 747 mmHg 66%
    14:00 +11°C° 0 mm 8 mps 746 mmHg 68%
    15:00 +10°C° 0 mm 9 mps 746 mmHg 69%
    16:00 +10°C° 0 mm 9 mps 747 mmHg 70%
    17:00 +8°C° 0 mm 9 mps 747 mmHg 70%
    18:00 +8°C° 0 mm 9 mps 747 mmHg 70%
    19:00 +8°C° 0 mm 9 mps 747 mmHg 70%
    20:00 +7°C° 0 mm 10 mps 748 mmHg 69%
    21:00 +7°C° 0 mm 10 mps 748 mmHg 68%
    22:00 +7°C° 0 mm 9 mps 748 mmHg 67%
    23:00 +7°C° 0 mm 9 mps 747 mmHg 66%

    Day after tomorrow, 15 November, Friday

    Time Temperature Precipitation Wind Pressure Humidity
    00:00 +7°C° 0 mm 8 mps 747 mmHg 65%
    01:00 +7°C° 0 mm 9 mps 747 mmHg 65%
    02:00 +7°C° 0 mm 9 mps 747 mmHg 64%
    03:00 +7°C° 0 mm 10 mps 747 mmHg 64%
    04:00 +6°C° 0.1 mm 10 mps 747 mmHg 67%
    05:00 +6°C° 0.1 mm 10 mps 747 mmHg 71%
    06:00 +6°C° 0.1 mm 10 mps 747 mmHg 74%
    07:00 +6°C° 0.1 mm 11 mps 748 mmHg 71%
    08:00 +7°C° 0.1 mm 11 mps 749 mmHg 67%
    09:00 +7°C° 0.1 mm 12 mps 749 mmHg 64%
    10:00 +7°C° 0 mm 12 mps 749 mmHg 63%
    11:00 +8°C° 0 mm 11 mps 749 mmHg 62%
    12:00 +8°C° 0 mm 11 mps 749 mmHg 61%
    13:00 +7°C° 0.6 mm 8 mps 749 mmHg 71%
    14:00 +6°C° 0.6 mm 7 mps 748 mmHg 75%
    15:00 +7°C° 0.6 mm 6 mps 748 mmHg 78%
    16:00 +7°C° 0.1 mm 6 mps 749 mmHg 78%
    17:00 +7°C° 0.1 mm 6 mps 749 mmHg 78%
    18:00 +7°C° 0.1 mm 6 mps 749 mmHg 78%
    19:00 +7°C° 0.2 mm 6 mps 749 mmHg 77%
    20:00 +7°C° 0.2 mm 6 mps 749 mmHg 75%
    21:00 +6°C° 0.2 mm 7 mps 750 mmHg 73%
    22:00 +7°C° 0 mm 6 mps 749 mmHg 73%
    23:00 +5°C° 0 mm 6 mps 749 mmHg 73%

    16 November, Saturday

    Time Temperature Precipitation Wind Pressure Humidity
    00:00 +5°C° 0 mm 6 mps 749 mmHg 73%
    01:00 +5°C° 0 mm 6 mps 749 mmHg 73%
    02:00 +6°C° 0 mm 5 mps 749 mmHg 72%
    03:00 +6°C° 0 mm 5 mps 749 mmHg 72%
    04:00 +6°C° 0 mm 5 mps 749 mmHg 73%
    05:00 +6°C° 0 mm 4 mps 750 mmHg 75%
    06:00 +5°C° 0 mm 4 mps 750 mmHg 77%
    07:00 +6°C° 0 mm 5 mps 750 mmHg 73%
    08:00 +7°C° 0 mm 5 mps 750 mmHg 70%
    09:00 +8°C° 0 mm 5 mps 751 mmHg 66%
    10:00 +8°C° 0 mm 5 mps 751 mmHg 63%
    11:00 +9°C° 0 mm 5 mps 751 mmHg 61%
    12:00 +9°C° 0 mm 5 mps 751 mmHg 58%
    13:00 +9°C° 0 mm 5 mps 750 mmHg 59%
    14:00 +9°C° 0 mm 5 mps 750 mmHg 61%
    15:00 +9°C° 0 mm 5 mps 750 mmHg 62%
    16:00 +9°C° 0 mm 5 mps 750 mmHg 63%
    17:00 +8°C° 0 mm 5 mps 750 mmHg 65%
    18:00 +8°C° 0 mm 4 mps 751 mmHg 67%
    19:00 +8°C° 0 mm 4 mps 751 mmHg 67%
    20:00 +9°C° 0 mm 3 mps 751 mmHg 68%
    21:00 +9°C° 0 mm 3 mps 751 mmHg 69%
    22:00 +9°C° 0 mm 3 mps 751 mmHg 70%
    23:00 +8°C° 0 mm 2 mps 751 mmHg 71%

    17 November, Sunday

    Time Temperature Precipitation Wind Pressure Humidity
    00:00 +8°C° 0 mm 2 mps 751 mmHg 72%
    01:00 +8°C° 0 mm 2 mps 751 mmHg 71%
    02:00 +8°C° 0 mm 2 mps 751 mmHg 71%
    03:00 +8°C° 0 mm 2 mps 750 mmHg 70%
    04:00 +8°C° 0 mm 2 mps 750 mmHg 70%
    05:00 +9°C° 0 mm 1 mps 750 mmHg 70%
    06:00 +9°C° 0 mm 1 mps 750 mmHg 70%
    07:00 +10°C° 0 mm 1 mps 751 mmHg 65%
    08:00 +11°C° 0 mm 1 mps 751 mmHg 59%
    09:00 +12°C° 0 mm 1 mps 752 mmHg 54%
    10:00 +12°C° 0 mm 1 mps 751 mmHg 54%
    11:00 +13°C° 0 mm 1 mps 751 mmHg 53%
    12:00 +14°C° 0 mm 1 mps 751 mmHg 52%
    13:00 +14°C° 0 mm 2 mps 751 mmHg 54%
    14:00 +14°C° 0 mm 2 mps 750 mmHg 55%
    15:00 +13°C° 0 mm 3 mps 750 mmHg 56%
    16:00 +12°C° 0 mm 3 mps 750 mmHg 61%
    17:00 +13°C° 0 mm 2 mps 750 mmHg 65%
    18:00 +12°C° 0 mm 2 mps 750 mmHg 70%
    19:00 +12°C° 0 mm 2 mps 750 mmHg 72%
    20:00 +10°C° 0 mm 2 mps 750 mmHg 74%
    21:00 +11°C° 0 mm 1 mps 750 mmHg 75%
    22:00 +11°C° 0 mm 1 mps 750 mmHg 76%
    23:00 +10°C° 0 mm 1 mps 750 mmHg 77%

    18 November, Monday

    Time Temperature Precipitation Wind Pressure Humidity
    00:00 +10°C° 0 mm 1 mps 750 mmHg 78%
    01:00 +10°C° 0 mm 1 mps 749 mmHg 79%
    02:00 +9°C° 0 mm 1 mps 749 mmHg 79%
    03:00 +9°C° 0 mm 1 mps 749 mmHg 79%
    04:00 +8°C° 0 mm 0 mps 749 mmHg 79%
    05:00 +8°C° 0 mm 0 mps 749 mmHg 79%
    06:00 +8°C° 0 mm 0 mps 748 mmHg 78%
    07:00 +9°C° 0 mm 0 mps 749 mmHg 72%
    08:00 +10°C° 0 mm 0 mps 749 mmHg 66%
    09:00 +11°C° 0 mm 0 mps 749 mmHg 60%
    10:00 +13°C° 0 mm 1 mps 749 mmHg 56%
    11:00 +13°C° 0 mm 1 mps 748 mmHg 53%
    12:00 +14°C° 0 mm 1 mps 748 mmHg 49%
    13:00 +14°C° 0 mm 1 mps 748 mmHg 48%
    14:00 +14°C° 0 mm 2 mps 747 mmHg 48%
    15:00 +14°C° 0 mm 2 mps 747 mmHg 48%
    16:00 +14°C° 0 mm 2 mps 747 mmHg 51%
    17:00 +13°C° 0 mm 2 mps 747 mmHg 55%
    18:00 +12°C° 0 mm 2 mps 747 mmHg 59%
    19:00 +12°C° 0 mm 2 mps 747 mmHg 60%
    20:00 +12°C° 0 mm 2 mps 746 mmHg 61%
    21:00 +12°C° 0 mm 2 mps 746 mmHg 62%
    22:00 +10°C° 0 mm 2 mps 746 mmHg 62%
    23:00 +10°C° 0 mm 2 mps 746 mmHg 63%
    Show more